Content
SEND FEEDBACK

Daily
Averages
Monthly
Summary
United States of America

PALMDALE - AIRPORT, CALIFORNIA


Home > North America > United States > California
Elevation: 2530 feet     Latitude: 34 38N     Longitude: 118 05W

WEATHER
 
SELECT A DAY
Number of Records: 162,605;   Date Range: 1/1/95 - 8/30/14
 
SHARE

PRINT THIS DATA

[ ← Previous Day ]
WEATHER ALMANAC - JANUARY 31, 2013
[ Next Day → ]
[ °C ]   °F
Weather ElementAverageHighLow
Temperature48.5 °F66.9 °F (2:53 pm)32 °F (6:53 am)
Dewpoint31 °F33.1 °F (7:53 pm)28 °F (6:53 am)
Humidity55.7 %85 % (6:53 am)25 % (2:53 pm)
Barometer30.25 in30.33 in (9:53 am)30.19 in (4:53 pm)
Wind Speed3.9 mph8.1 mph (12:53 pm)
Wind Gust17.3 mph (1:53 pm)
Weather ElementAverage
Visibility10 mi
Wind DirectionENE (78.3 °)

Weather ElementTotal
Precipitation---
Heating Degree Days15.6 (Base 65)
Averaged from 23 records on January 31, 2013
WEATHER CONDITIONS BREAKOUT
WIND DIRECTION BREAKOUT
WEATHER BY HOUR - JANUARY 31, 2013
[ °C ]   °F
Local TimeTemperatureDewpointHumidityBarometerVisibilityWind DirectionWind SpeedGust SpeedPrecipitationEventsConditions
1:53 AM39.9 °F30.9 °F70 %30.28 in10.0 miCalmClear
2:53 AM35.1 °F30.0 °F82 %30.28 in10.0 miSouth (190°)6.9 mphClear
3:53 AM35.1 °F30.0 °F82 %30.27 in10.0 miCalmClear
4:53 AM34.0 °F28.9 °F82 %30.27 in10.0 miCalmClear
5:53 AM36.0 °F28.9 °F76 %30.28 in10.0 miCalmClear
6:53 AM32.0 °F28.0 °F85 %30.30 in10.0 miSE (140°)3.5 mphClear
7:53 AM37.0 °F30.9 °F79 %30.31 in10.0 miCalmClear
8:53 AM44.1 °F32.0 °F63 %30.32 in10.0 miCalmClear
9:53 AM50.0 °F30.9 °F48 %30.33 in10.0 miVariable3.5 mphClear
10:53 AM55.0 °F32.0 °F42 %30.32 in10.0 miNorth (10°)3.5 mphClear
11:53 AM59.0 °F32.0 °F36 %30.28 in10.0 miEast (80°)3.5 mphClear
12:53 PM64.0 °F32.0 °F30 %30.24 in10.0 miNE (50°)8.1 mphClear
1:53 PM66.0 °F30.9 °F27 %30.21 in10.0 miNE (50°)6.9 mph17.3 mphClear
2:53 PM66.9 °F30.0 °F25 %30.20 in10.0 miENE (60°)4.6 mphClear
3:53 PM66.2 °F30.2 °F26 %30.20 in10.0 miENE (60°)8.1 mphClear
4:53 PM64.0 °F30.0 °F28 %30.19 in10.0 miENE (70°)5.8 mphClear
5:53 PM57.9 °F30.9 °F36 %30.20 in10.0 miENE (70°)4.6 mphClear
6:53 PM53.1 °F32.0 °F45 %30.22 in10.0 miSSW (200°)6.9 mphClear
7:53 PM48.0 °F33.1 °F56 %30.22 in10.0 miCalmClear
8:53 PM46.0 °F33.1 °F61 %30.23 in10.0 miSSW (200°)6.9 mphClear
9:53 PM44.1 °F32.0 °F63 %30.22 in10.0 miSSW (200°)5.8 mphClear
10:53 PM43.0 °F32.0 °F65 %30.22 in10.0 miSSW (210°)5.8 mphClear
11:53 PM39.9 °F32.0 °F73 %30.21 in10.0 miSSW (210°)5.8 mphClear
Hourly data recorded from KPMD, located miles away from Palmdale - Airport, California







STORIES FROM OUR PARTNERS